Regional Weather Roundup
Issued by NWS

Home | Current Version | Previous Version | Graphics & Text | Print | Product List | Glossary On
Versions: 1 2 3 4 5 6 7 8 9 10 11 12 13 14 15 16 17 18 19 20 21 22 23 24 25 26 27 28 29 30 31 32 33 34 35 36 37 38 39 40 41 42 43 44 45 46 47 48 49 50
000
ASUS45 KTFX 170019
RWRMT
MONTANA HOURLY WEATHER ROUNDUP
NATIONAL WEATHER SERVICE GREAT FALLS MT
619 PM MDT TUE SEP 16 2014

NOTE: "FAIR" INDICATES FEW OR NO CLOUDS BELOW 12000 FEET WITH NO
SIGNIFICANT WEATHER AND/OR OBSTRUCTIONS TO VISIBILITY.

* THESE STATIONS ARE NOT UNDER NWS QUALITY CONTROL. THEY DO NOT
   REPORT WEATHER SUCH AS PRECIPITATION OR FOG.

MTZ001>007-043-170100-
WEST OF THE DIVIDE
CITY           SKY/WX    TMP DP  RH WIND       PRES   REMARKS
KALISPELL      CLOUDY    72  39  30 CALM      29.90F
MISSOULA       CLOUDY    75  43  32 CALM      29.91F
BUTTE          CLOUDY    73  39  29 W12G17    30.06F
MULLAN PASS    CLOUDY    70  37  30 VRB5      30.08S
* ESSEX        N/A       74  46  37 S1         N/A
* LINCOLN      N/A       81  36  20 SW3G11     N/A
* LOOKOUT PASS N/A       75  40  28 S4G9       N/A
* POLSON       N/A       72  45  38 NW1        N/A
* RONAN APT    CLOUDY    73  37  27 N6         N/A
* SEELEY LAKE  N/A       79  36  21 E1         N/A
* THOMP F APT  CLOUDY    81  43  26 N/A        N/A
$$

MTZ008-052>055-170100-
SOUTHWEST MONTANA
CITY           SKY/WX    TMP DP  RH WIND       PRES   REMARKS
BOZEMAN        CLOUDY    72  46  40 S6        30.00F
DILLON         MOCLDY    77  37  24 S6        30.04F
W YELLOWSTONE  PTCLDY    72  36  27 S6        30.15F
* THREE FORKS  CLOUDY    73  55  53 N/A        N/A
* BOULDER HILL N/A       73  37  27 S8G18      N/A
* MONIDA PASS  N/A       71  35  27 S9G17      N/A
* RAYNOLDS PAS N/A       74  50  43 SE12       N/A
* WHITEHALL    N/A       77  41  28 SW6G12     N/A
* WISE RIVER   N/A       74  39  28 W8         N/A
$$

MTZ009>010-012-014-046-048-049-054-170100-
EAST SLOPES AND CENTRAL MONTANA
CITY           SKY/WX    TMP DP  RH WIND       PRES   REMARKS
CUT BANK       PTCLDY    75  39  27 W8        29.91S
GREAT FALLS    CLOUDY    73  46  38 S7        29.91F
HELENA         MOCLDY    81  43  26 CALM      29.94F
MALMSTROM AFB  CLOUDY    77  50  39 S2        29.92F
* CONRAD       PTCLDY    82  45  27 S6         N/A
* EAST GLACIER N/A       74  36  25 NW9G14     N/A
* MONARCH      N/A       70  35  28 SW3        N/A
* PENDROY      N/A       80  38  22 SE5        N/A
* ROGERS PASS  N/A       72  37  28 SE6G11     N/A
* SAINT MARY   N/A       79  32  18 S5G12      N/A
* SWEET GRASS  N/A       80  36  20 SW6        N/A
* WHITE SULPH  N/A       72  43  35 SE4        N/A
$$

MTZ011-013-016-021-035-040-045-047-050-051-170100-
NORTH CENTRAL MONTANA
CITY           SKY/WX    TMP DP  RH WIND       PRES   REMARKS
HAVRE          CLEAR     81  39  22 E3        29.87F
LEWISTOWN      CLOUDY    75  48  39 E3        29.97F
* CHINOOK      PTCLDY    79  46  31 CALM      29.88S
* FORT BENTON  PTCLDY    79  46  31 NE3       29.88F
* CHESTER      N/A       78  34  20 S4         N/A
* DENTON       N/A       76  37  24 SE3        N/A
* GEYSER       N/A       74  47  38 E4         N/A
* JUDITH GAP   N/A       76  39  26 N/A        N/A
* LOMA         N/A       80  39  23 E1         N/A
$$

MTZ017>020-022>027-061-062-170100-
NORTHEAST MONTANA
CITY           SKY/WX    TMP DP  RH WIND       PRES   REMARKS
GLASGOW        CLEAR     75  43  32 S5        29.89F
JORDAN         MOCLDY    77  46  33 CALM      29.90F
SIDNEY         CLEAR     73  43  34 CALM      29.92S
WOLF POINT     CLEAR     79  39  24 CALM      29.89F
* BEAVER HILL  N/A       73  43  34 W1         N/A
* CIRCLE       N/A       78  48  35 W1         N/A
* LINDSAY DVD  N/A       75  40  28 W5         N/A
* NAVAJO       N/A       73  36  26 SW4        N/A
* SACO         N/A       78  47  34 N/A        N/A
$$

MTZ028>042-056>058-170100-
SOUTHCENTRAL AND SOUTHEAST MONTANA
CITY           SKY/WX    TMP DP  RH WIND       PRES   REMARKS
BAKER          PTCLDY    72  48  43 N8        29.95S
BILLINGS       MOCLDY    82  36  19 S5        29.94F
LIVINGSTON     CLOUDY    77  37  24 SW17      29.99F
MILES CITY     MOCLDY    79  46  31 E3        29.91F
* LAUREL APT   PTCLDY    84  39  20 N/A        N/A
* ROUNDUP APT  CLOUDY    75  46  36 N/A        N/A
* ALZADA       N/A       77  40  27 NW5        N/A
* HYSHAM       N/A       77  44  31 NE4        N/A
* LAME DEER    N/A       76  45  33 N/A        N/A
* REED POINT   N/A       80  39  23 W6G12      N/A
* ROSCOE HILL  N/A       72  29  20 S13G19     N/A
$$

REGIONAL REPORTS...DAKOTAS
CITY           SKY/WX    TMP DP  RH WIND       PRES   REMARKS
WILLISTON      CLEAR     72  39  30 SW5       29.92S
DICKINSON      CLEAR     70  46  42 NE5       29.92F
BEACH          N/A       68  46  45 NW5       29.94F
CROSBY         CLEAR     68  39  35 S6        29.91S
TIOGA          CLEAR     68  37  32 S8        29.95S
WATFORD CITY   CLEAR     70  34  27 NE5       29.90F
BISMARCK       PTCLDY    72  45  38 CALM      29.92S
GRAND FORKS    FAIR      66  48  52 S6        29.92S
FARGO          CLEAR     66  45  47 SE5       29.94F
BUFFALO SD     MOCLDY    75  48  39 N5        29.88S
RAPID CITY     CLEAR     75  48  39 SE5       29.95S
$$

REGIONAL REPORTS...WYOMING/IDAHO/WASHINGTON
CITY           SKY/WX    TMP DP  RH WIND       PRES   REMARKS
GILLETTE       PTCLDY    75  43  32 N8        30.00S
SHERIDAN       PTCLDY    79  43  28 NW8       29.99S
CODY           MOCLDY    72  46  40 CALM      30.06R
YELLOWSTONE LA PTCLDY    66  36  33 S3        30.27F
SALMON         PTCLDY    73  43  34 CALM      29.96F
MULLAN PASS    CLOUDY    70  37  30 VRB5      30.08S
SAND POINT     CLOUDY    72  48  43 CALM      29.86F
SPOKANE        CLOUDY    84  41  22 NE5       29.83F
$$

REGIONAL REPORTS...ALBERTA
CITY           SKY/WX    TMP DP  RH WIND       PRES   REMARKS
CALGARY        FAIR      75  43  32 NE8       29.88S
LETHBRIDGE     MOCLDY    77  46  33 NE5       29.86S
MEDICINE HAT   FAIR      77  45  32 E5        29.84F
EDMONTON       FAIR      77  45  32 W7        29.82S
WATERTON GATE  N/A       77  37  24 W5         N/A
CARDSTON       N/A       77  43  30 W5         N/A
MILK RIVER     N/A       77  39  26 NW7        N/A
$$

REGIONAL REPORTS...SASKATCHEWAN
CITY           SKY/WX    TMP DP  RH WIND       PRES   REMARKS
SWIFT CURRENT  CLEAR     73  41  32 NW7       29.87S
MOOSE JAW      FAIR      75  45  34 S2        29.88F
REGINA         FAIR      72  46  40 W6        29.88S
VAL MARIE      N/A       73  45  37 S7         N/A
ASSINIBOIA     N/A       73  39  29 SW7        N/A
CORONACH       N/A       73  39  29 SW5        N/A

$$




USA.gov is the U.S. government's official web portal to all federal, state and local government web resources and services.